Погода в Морсё

Дания     56°49′07″N   8°45′34″E
темп.,
°C
ветер,
м/с
пор.,
м/с
влажн.,
%
обл.,
%
осадки,
мм/ч
давл.,
гПа
погр.,
м
27 октября, ср
ср2723:00+11ююз71391100 0.4 1010745
02:00+13юз101693100 1.3 1009772
05:00+14юз101691100 0.4 1008754
08:00+13зюз111789100 0.4 1008816
11:00+13зюз111689100 0.1 1009830
14:00+13зюз101692100 0.5 1010788
17:00+13зюз101593100 0.3 1010669
20:00+13зюз81392100 0.4 1012602
28 октября, чт
чт2823:00+14юз91590100 0.4 1012715
02:00+14юз91588100 0.4 1012734
05:00+13ююз91593100 0.0 1012596
08:00+13ююз91789100 0.0 1012644
11:00+14ююз91687100 0.0 1012637
14:00+15ююз9167896 0.0 1012734
17:00+13ююз8157931 0.0 1012530
20:00+12ю816865 0.0 1012431
29 октября, пт
пт2923:00+11ю715870 0.0 1011417
02:00+11ю613855 0.0 1009361
05:00+10ююв6128721 0.0 1008289
08:00+9ю6129050 0.0 1008266
11:00+11ю71384100 0.0 1008392
14:00+14ю7137395 0.0 1007525
17:00+13ю61376100 0.0 1006381
20:00+11ююв61281100 0.0 1006292
30 октября, сб
сб3023:00+10ююв61382100 0.0 1005294
02:00+10ююв61281100 0.0 1003259
05:00+10ююв51179100 0.0 1002231
08:00+11ю71479100 0.0 1001507
11:00+12ю81487100 0.9 1001689
14:00+13юз8127946 1.3 10021027
17:00+12ююз81381100 0.2 1003707
20:00+11ю91586100 0.4 1004969
31 октября, вс
вс3123:00+11ююз71294100 6.0 1003786
02:00+11ююз71292100 9.1 1003604
04:00+11ю4794100 3.3 1001322
07:00+10ссз1195100 8.2 100082
10:00+10всв3597100 3.6 997361
13:00+11ю71394100 7.9 994578
16:00+11ю81592100 8.4 991854
19:00+12ю101693100 11.2 988861